When you browse on this site, cookies collect data to enhance your experience and personalize the content and advertising you see.
Visit our Privacy Policy to learn more. By continuing to use the site, you agree to this use of cookies and data.
  • In Austria
  • List of Countries
  • For 7 days
  • Water Temperature
  • Weather Map
  • News
  • Weather Widgets
  • user-avatar
    Login

    Hourly Weather Quipile

    Today, 22 September, Sunday

    Time Temperature Precipitation Wind Pressure Humidity
    00:00 +13°C° 0.5 mm 1 mps 598 mmHg 87%
    01:00 +13°C° 0.5 mm 1 mps 597 mmHg 88%
    02:00 +13°C° 0.8 mm 1 mps 597 mmHg 89%
    03:00 +12°C° 0.8 mm 1 mps 597 mmHg 89%
    04:00 +11°C° 0.8 mm 0 mps 597 mmHg 90%
    05:00 +12°C° 0.3 mm 0 mps 597 mmHg 88%
    06:00 +13°C° 0.3 mm 0 mps 598 mmHg 86%
    07:00 +13°C° 0.3 mm 0 mps 599 mmHg 84%
    08:00 +15°C° 0.4 mm 0 mps 599 mmHg 81%
    09:00 +18°C° 0.4 mm 1 mps 600 mmHg 77%
    10:00 +19°C° 0.4 mm 1 mps 601 mmHg 74%
    11:00 +20°C° 0.6 mm 1 mps 600 mmHg 69%
    12:00 +21°C° 0.6 mm 1 mps 600 mmHg 65%
    13:00 +21°C° 0.6 mm 2 mps 600 mmHg 61%
    14:00 +22°C° 0.9 mm 1 mps 599 mmHg 62%
    15:00 +22°C° 0.9 mm 1 mps 598 mmHg 63%
    16:00 +22°C° 0.9 mm 1 mps 598 mmHg 64%
    17:00 +20°C° 0.5 mm 1 mps 598 mmHg 70%
    18:00 +18°C° 0.5 mm 1 mps 598 mmHg 75%
    19:00 +15°C° 0.5 mm 1 mps 598 mmHg 81%
    20:00 +15°C° 0.9 mm 1 mps 598 mmHg 82%
    21:00 +14°C° 0.9 mm 1 mps 598 mmHg 83%
    22:00 +14°C° 0.9 mm 1 mps 598 mmHg 84%
    23:00 +13°C° 0.9 mm 1 mps 598 mmHg 86%

    Tomorrow, 23 September, Monday

    Time Temperature Precipitation Wind Pressure Humidity
    00:00 +13°C° 0.9 mm 1 mps 598 mmHg 87%
    01:00 +13°C° 0.9 mm 1 mps 597 mmHg 89%
    02:00 +13°C° 0.9 mm 1 mps 597 mmHg 89%
    03:00 +13°C° 0.9 mm 1 mps 597 mmHg 90%
    04:00 +11°C° 0.9 mm 0 mps 597 mmHg 90%
    05:00 +12°C° 0.7 mm 0 mps 598 mmHg 89%
    06:00 +12°C° 0.7 mm 0 mps 598 mmHg 88%
    07:00 +13°C° 0.7 mm 0 mps 599 mmHg 88%
    08:00 +14°C° 0.5 mm 0 mps 599 mmHg 85%
    09:00 +16°C° 0.5 mm 1 mps 599 mmHg 83%
    10:00 +18°C° 0.5 mm 1 mps 600 mmHg 80%
    11:00 +19°C° 0.4 mm 1 mps 600 mmHg 73%
    12:00 +21°C° 0.4 mm 1 mps 600 mmHg 66%
    13:00 +21°C° 0.4 mm 2 mps 600 mmHg 59%
    14:00 +22°C° 0.2 mm 1 mps 599 mmHg 59%
    15:00 +22°C° 0.2 mm 1 mps 599 mmHg 60%
    16:00 +22°C° 0.2 mm 1 mps 598 mmHg 60%
    17:00 +20°C° 0.3 mm 1 mps 598 mmHg 66%
    18:00 +18°C° 0.3 mm 1 mps 598 mmHg 72%
    19:00 +15°C° 0.3 mm 1 mps 597 mmHg 78%
    20:00 +15°C° 0.2 mm 1 mps 597 mmHg 79%
    21:00 +15°C° 0.2 mm 1 mps 598 mmHg 79%
    22:00 +14°C° 0.2 mm 1 mps 598 mmHg 80%
    23:00 +14°C° 0.5 mm 1 mps 598 mmHg 81%

    Day after tomorrow, 24 September, Tuesday

    Time Temperature Precipitation Wind Pressure Humidity
    00:00 +14°C° 0.5 mm 1 mps 598 mmHg 83%
    01:00 +14°C° 0.5 mm 1 mps 597 mmHg 84%
    02:00 +13°C° 0.5 mm 1 mps 597 mmHg 86%
    03:00 +12°C° 0.5 mm 0 mps 597 mmHg 87%
    04:00 +12°C° 0.5 mm 0 mps 597 mmHg 88%
    05:00 +12°C° 0.2 mm 0 mps 598 mmHg 87%
    06:00 +13°C° 0.2 mm 0 mps 598 mmHg 85%
    07:00 +13°C° 0.2 mm 0 mps 599 mmHg 84%
    08:00 +16°C° 0.1 mm 1 mps 599 mmHg 78%
    09:00 +19°C° 0.1 mm 1 mps 600 mmHg 72%
    10:00 +19°C° 0.1 mm 2 mps 601 mmHg 67%
    11:00 +20°C° 0.1 mm 2 mps 600 mmHg 62%
    12:00 +21°C° 0.1 mm 2 mps 600 mmHg 58%
    13:00 +22°C° 0.1 mm 3 mps 600 mmHg 53%
    14:00 +23°C° 0 mm 2 mps 599 mmHg 52%
    15:00 +23°C° 0 mm 2 mps 599 mmHg 51%
    16:00 +23°C° 0 mm 2 mps 599 mmHg 50%
    17:00 +21°C° 0.2 mm 1 mps 598 mmHg 57%
    18:00 +19°C° 0.2 mm 1 mps 598 mmHg 64%
    19:00 +16°C° 0.2 mm 1 mps 598 mmHg 71%
    20:00 +16°C° 0.2 mm 1 mps 598 mmHg 74%
    21:00 +15°C° 0.2 mm 1 mps 598 mmHg 77%
    22:00 +15°C° 0.2 mm 1 mps 599 mmHg 80%
    23:00 +15°C° 0.6 mm 1 mps 599 mmHg 82%

    25 September, Wednesday

    Time Temperature Precipitation Wind Pressure Humidity
    00:00 +14°C° 0.6 mm 1 mps 598 mmHg 85%
    01:00 +13°C° 0.6 mm 0 mps 598 mmHg 87%
    02:00 +13°C° 0.6 mm 0 mps 598 mmHg 89%
    03:00 +12°C° 0.6 mm 0 mps 597 mmHg 91%
    04:00 +12°C° 0.6 mm 0 mps 597 mmHg 92%
    05:00 +12°C° 0.6 mm 0 mps 598 mmHg 92%
    06:00 +13°C° 0.6 mm 0 mps 598 mmHg 91%
    07:00 +13°C° 0.6 mm 0 mps 599 mmHg 90%
    08:00 +14°C° 0.6 mm 0 mps 599 mmHg 87%
    09:00 +16°C° 0.6 mm 1 mps 600 mmHg 85%
    10:00 +18°C° 0.6 mm 1 mps 600 mmHg 82%
    11:00 +18°C° 0.8 mm 1 mps 600 mmHg 78%
    12:00 +19°C° 0.8 mm 1 mps 599 mmHg 75%
    13:00 +20°C° 0.8 mm 1 mps 599 mmHg 72%
    14:00 +20°C° 0.7 mm 1 mps 599 mmHg 71%
    15:00 +20°C° 0.7 mm 1 mps 598 mmHg 70%
    16:00 +20°C° 0.7 mm 1 mps 598 mmHg 70%
    17:00 +19°C° 0.3 mm 1 mps 598 mmHg 74%
    18:00 +16°C° 0.3 mm 1 mps 598 mmHg 77%
    19:00 +15°C° 0.3 mm 1 mps 598 mmHg 81%
    20:00 +15°C° 0.5 mm 1 mps 598 mmHg 82%
    21:00 +14°C° 0.5 mm 1 mps 598 mmHg 84%
    22:00 +14°C° 0.5 mm 1 mps 598 mmHg 85%
    23:00 +13°C° 0.5 mm 1 mps 598 mmHg 86%

    26 September, Thursday

    Time Temperature Precipitation Wind Pressure Humidity
    00:00 +13°C° 0.5 mm 1 mps 598 mmHg 87%
    01:00 +13°C° 0.5 mm 1 mps 597 mmHg 88%
    02:00 +13°C° 0.5 mm 1 mps 597 mmHg 89%
    03:00 +12°C° 0.5 mm 1 mps 597 mmHg 90%
    04:00 +12°C° 0.5 mm 1 mps 597 mmHg 91%
    05:00 +12°C° 0.3 mm 0 mps 597 mmHg 89%
    06:00 +12°C° 0.3 mm 0 mps 598 mmHg 88%
    07:00 +13°C° 0.3 mm 0 mps 599 mmHg 87%
    08:00 +14°C° 0.2 mm 0 mps 599 mmHg 81%
    09:00 +18°C° 0.2 mm 1 mps 600 mmHg 75%
    10:00 +20°C° 0.2 mm 1 mps 601 mmHg 68%
    11:00 +21°C° 0.3 mm 1 mps 600 mmHg 65%
    12:00 +21°C° 0.3 mm 2 mps 600 mmHg 61%
    13:00 +21°C° 0.3 mm 2 mps 599 mmHg 58%
    14:00 +21°C° 0.2 mm 2 mps 599 mmHg 59%
    15:00 +22°C° 0.2 mm 1 mps 598 mmHg 60%
    16:00 +21°C° 0.2 mm 1 mps 598 mmHg 62%
    17:00 +20°C° 0.1 mm 1 mps 598 mmHg 66%
    18:00 +18°C° 0.1 mm 1 mps 597 mmHg 70%
    19:00 +15°C° 0.1 mm 1 mps 597 mmHg 75%
    20:00 +15°C° 0 mm 1 mps 598 mmHg 74%
    21:00 +15°C° 0 mm 1 mps 598 mmHg 74%
    22:00 +14°C° 0 mm 1 mps 598 mmHg 74%
    23:00 +14°C° 0.3 mm 1 mps 598 mmHg 76%

    27 September, Friday

    Time Temperature Precipitation Wind Pressure Humidity
    00:00 +13°C° 0.3 mm 1 mps 597 mmHg 78%
    01:00 +13°C° 0.3 mm 1 mps 597 mmHg 81%
    02:00 +13°C° 0.1 mm 1 mps 597 mmHg 81%
    03:00 +12°C° 0.1 mm 1 mps 597 mmHg 81%
    04:00 +12°C° 0.1 mm 1 mps 596 mmHg 82%
    05:00 +13°C° 0.2 mm 1 mps 597 mmHg 80%
    06:00 +13°C° 0.2 mm 0 mps 598 mmHg 78%
    07:00 +13°C° 0.2 mm 0 mps 599 mmHg 76%
    08:00 +16°C° 0.1 mm 1 mps 599 mmHg 72%
    09:00 +19°C° 0.1 mm 1 mps 600 mmHg 68%
    10:00 +20°C° 0.1 mm 1 mps 601 mmHg 64%
    11:00 +21°C° 0.3 mm 1 mps 600 mmHg 62%
    12:00 +21°C° 0.3 mm 2 mps 600 mmHg 60%
    13:00 +21°C° 0.3 mm 2 mps 599 mmHg 57%
    14:00 +21°C° 0.2 mm 2 mps 599 mmHg 56%
    15:00 +21°C° 0.2 mm 2 mps 598 mmHg 56%
    16:00 +22°C° 0.2 mm 1 mps 598 mmHg 55%
    17:00 +20°C° 0.2 mm 1 mps 598 mmHg 60%
    18:00 +19°C° 0.2 mm 1 mps 598 mmHg 65%
    19:00 +16°C° 0.2 mm 1 mps 598 mmHg 70%
    20:00 +15°C° 0.4 mm 1 mps 598 mmHg 74%
    21:00 +15°C° 0.4 mm 2 mps 598 mmHg 78%
    22:00 +14°C° 0.4 mm 2 mps 598 mmHg 82%
    23:00 +14°C° 0.1 mm 1 mps 598 mmHg 83%
    Show more